DW8453 Bekkjarvik NO current weather conditions

sailwx.info

Wind from 206 at 30 knots gusting 32

Air temperature 6.1° C
Dewpoint 2.7° C

Last reported at 2019-Dec-11 15:55 UTC.
Time now 2019-Dec-11 16:54 UTC

Location: N 60°01' E 005°12'.
View on Google Maps.

See reports from other nearby stations

  
Tides and Currents Weather Stations Pressure Air Temp Water Temp Dewpoint Dewpoint Depression Visibility Wind Speed Wind Dir Waves Ship Positions
date/time (UTC)wind fromknots sea level pressurealtimeterstation pressurevisibilityair tempwater tempwave heightnotes
2019-Dec-11 15:55 206 30 gusting 32 6.1
2019-Dec-11 15:50 203 28 gusting 33 6.1
2019-Dec-11 15:45 195 33 gusting 37 6.1
2019-Dec-11 15:40 202 24 gusting 33 6.1
2019-Dec-11 15:35 184 24 gusting 33 6.7
2019-Dec-11 15:30 188 30 gusting 40 6.7
2019-Dec-11 15:25 217 36 gusting 39 6.7
2019-Dec-11 15:20 193 28 gusting 30 6.7
2019-Dec-11 15:15 189 18 gusting 33 6.7
2019-Dec-11 15:10 183 33 gusting 33 6.7
2019-Dec-11 15:05 206 27 gusting 37 6.7
2019-Dec-11 15:00 200 24 gusting 30 6.7
2019-Dec-11 14:55 213 23 gusting 28 6.7
2019-Dec-11 14:50 182 22 gusting 25 6.7
2019-Dec-11 14:45 223 34 gusting 33 6.7
2019-Dec-11 14:40 206 25 gusting 37 6.7
2019-Dec-11 14:35 216 33 gusting 38 6.7
2019-Dec-11 14:30 216 31 gusting 35 6.7
2019-Dec-11 14:25 193 27 gusting 27 6.7
2019-Dec-11 14:20 191 28 gusting 32 6.7
2019-Dec-11 14:15 202 22 gusting 33 6.7
2019-Dec-11 14:10 218 27 gusting 28 6.7
2019-Dec-11 14:05 215 25 gusting 33 6.7
2019-Dec-11 14:00 220 27 gusting 33 6.7
2019-Dec-11 13:55 215 18 gusting 25 6.7
2019-Dec-11 13:50 193 23 gusting 27 6.7
2019-Dec-11 13:45 196 24 gusting 39 6.7
2019-Dec-11 13:40 207 24 gusting 34 6.1
2019-Dec-11 13:35 207 19 gusting 28 6.7
2019-Dec-11 13:30 218 20 gusting 34 6.7
2019-Dec-11 13:25 224 26 gusting 37 6.7
2019-Dec-11 13:20 212 23 gusting 39 7.2
2019-Dec-11 13:15 195 23 gusting 25 7.2
2019-Dec-11 13:10 218 21 gusting 26 7.2
2019-Dec-11 13:05 181 19 gusting 28 7.2
2019-Dec-11 13:00 217 24 gusting 33 7.2
2019-Dec-11 12:55 204 26 gusting 26 7.2
2019-Dec-11 12:50 209 24 gusting 22 7.2
2019-Dec-11 12:45 203 26 gusting 33 7.2
2019-Dec-11 12:40 192 21 gusting 27 7.2
2019-Dec-11 12:35 206 25 gusting 30 7.2
2019-Dec-11 12:30 189 19 gusting 21 7.2
2019-Dec-11 12:25 207 18 gusting 26 7.2
2019-Dec-11 12:20 214 29 gusting 33 7.2
2019-Dec-11 12:15 188 26 gusting 27 7.2
2019-Dec-11 12:10 218 20 gusting 28 7.2
2019-Dec-11 12:05 206 23 gusting 28 7.2
2019-Dec-11 12:00 215 24 gusting 32 7.2
2019-Dec-11 11:55 214 28 gusting 32 7.2
2019-Dec-11 11:50 200 25 gusting 26 7.2
2019-Dec-11 11:45 197 21 gusting 24 7.2
2019-Dec-11 11:40 190 22 gusting 33 7.2
2019-Dec-11 11:35 191 24 gusting 33 7.2
2019-Dec-11 11:30 189 22 gusting 34 7.2
2019-Dec-11 11:25 185 26 gusting 26 7.2
2019-Dec-11 11:20 193 22 gusting 22 7.2
2019-Dec-11 11:15 189 19 gusting 25 7.2
2019-Dec-11 11:10 211 19 gusting 19 7.2
2019-Dec-11 11:05 196 20 gusting 28 7.2
2019-Dec-11 11:00 200 20 gusting 26 7.2
2019-Dec-11 10:55 202 26 gusting 28 7.2
2019-Dec-11 10:50 210 24 gusting 26 7.2
2019-Dec-11 10:45 197 19 gusting 19 7.2
2019-Dec-11 10:40 202 19 gusting 19 7.2
2019-Dec-11 10:35 221 20 gusting 24 7.2
2019-Dec-11 10:30 193 26 gusting 30 7.2
2019-Dec-11 10:25 230 21 gusting 26 7.2
2019-Dec-11 10:20 228 15 gusting 24 7.2
2019-Dec-11 10:15 237 13 gusting 26 6.7
2019-Dec-11 10:10 208 21 gusting 27 6.7
2019-Dec-11 10:05 202 28 gusting 26 6.7
2019-Dec-11 10:00 217 29 gusting 26 6.7
2019-Dec-11 09:55 229 26 gusting 32 6.7
2019-Dec-11 09:50 215 33 gusting 33 6.7
2019-Dec-11 09:45 224 19 gusting 26 6.7
2019-Dec-11 09:40 232 24 gusting 27 6.7
2019-Dec-11 09:35 195 24 gusting 30 6.7
2019-Dec-11 09:30 219 21 gusting 25 6.7
2019-Dec-11 09:25 242 20 gusting 27 6.7
2019-Dec-11 09:20 215 15 gusting 27 6.7
2019-Dec-11 09:15 230 20 gusting 21 6.7
2019-Dec-11 09:10 214 19 gusting 28 6.7
2019-Dec-11 09:05 202 25 gusting 26 6.7
2019-Dec-11 09:00 233 22 gusting 24 6.7
2019-Dec-11 08:55 236 21 gusting 21 6.7
2019-Dec-11 08:50 237 20 gusting 26 6.7
2019-Dec-11 08:45 238 19 gusting 22 6.7
2019-Dec-11 08:40 225 22 gusting 24 6.7
2019-Dec-11 08:35 224 29 gusting 32 6.7
2019-Dec-11 08:30 216 24 gusting 31 6.7
2019-Dec-11 08:25 223 19 gusting 19 6.7
2019-Dec-11 08:20 221 18 gusting 19 6.7
2019-Dec-11 08:15 227 20 gusting 22 6.7
2019-Dec-11 08:10 252 17 gusting 18 6.7
2019-Dec-11 08:05 223 20 gusting 21 6.7
2019-Dec-11 08:00 240 24 gusting 25 6.7
2019-Dec-11 07:55 229 26 gusting 25 6.7
2019-Dec-11 07:50 234 17 gusting 26 6.1
2019-Dec-11 07:45 242 15 gusting 18 6.1
2019-Dec-11 07:40 248 19 gusting 20 6.7
2019-Dec-11 07:35 226 21 gusting 26 6.7
2019-Dec-11 07:30 245 25 gusting 26 6.7
2019-Dec-11 07:25 219 26 gusting 27 6.7
2019-Dec-11 07:20 241 26 gusting 27 6.1
2019-Dec-11 07:15 225 31 gusting 31 6.1
2019-Dec-11 07:10 223 18 gusting 27 6.1
2019-Dec-11 07:05 231 20 gusting 22 6.1
2019-Dec-11 07:00 248 27 gusting 27 6.1
2019-Dec-11 06:55 231 26 gusting 30 6.1
2019-Dec-11 06:50 240 30 gusting 28 6.1
2019-Dec-11 06:45 215 32 gusting 35 6.1
2019-Dec-11 06:40 211 24 gusting 24 5.6
2019-Dec-11 06:35 234 19 gusting 20 5.6
2019-Dec-11 06:30 242 22 gusting 31 6.1
2019-Dec-11 06:25 248 27 gusting 30 6.7
2019-Dec-11 06:20 269 25 gusting 26 6.7
2019-Dec-11 06:15 235 20 gusting 28 6.7
2019-Dec-11 06:10 206 24 gusting 25 6.7
2019-Dec-11 06:05 229 30 gusting 32 6.7
2019-Dec-11 06:00 249 28 gusting 31 6.7
2019-Dec-11 05:55 238 22 gusting 27 6.7
2019-Dec-11 05:50 244 22 gusting 28 6.7
2019-Dec-11 05:45 253 22 gusting 27 7.2
2019-Dec-11 05:40 224 25 gusting 30 6.7
2019-Dec-11 05:35 214 25 gusting 27 6.7
2019-Dec-11 05:30 225 23 gusting 25 6.7
2019-Dec-11 05:25 227 26 gusting 26 6.7
2019-Dec-11 05:20 248 25 gusting 26 6.7
2019-Dec-11 05:15 254 26 gusting 26 7.2
2019-Dec-11 05:10 239 31 gusting 28 6.7
2019-Dec-11 05:05 232 26 gusting 28 7.2
2019-Dec-11 05:00 231 20 gusting 22 7.2
2019-Dec-11 04:55 224 19 gusting 28 7.2
2019-Dec-11 04:50 239 24 gusting 25 6.7
2019-Dec-11 04:45 231 26 gusting 26 6.7
2019-Dec-11 04:40 231 25 gusting 31 6.7
2019-Dec-11 04:35 229 25 gusting 26 6.7
2019-Dec-11 04:30 243 20 gusting 25 6.7
2019-Dec-11 04:25 233 20 gusting 22 6.7
2019-Dec-11 04:20 230 23 gusting 26 6.7
2019-Dec-11 04:15 242 16 gusting 19 6.7
2019-Dec-11 04:10 230 22 gusting 22 6.7
2019-Dec-11 04:05 248 19 gusting 30 6.7
2019-Dec-11 04:00 269 32 gusting 33 6.7
2019-Dec-11 03:55 263 18 gusting 19 6.7
2019-Dec-11 03:50 252 20 gusting 25 6.7
2019-Dec-11 03:45 225 27 gusting 31 6.7
2019-Dec-11 03:40 234 22 gusting 22 6.7
2019-Dec-11 03:35 245 19 gusting 21 6.7
2019-Dec-11 03:30 248 22 gusting 26 6.7
2019-Dec-11 03:25 242 18 gusting 21 6.7
2019-Dec-11 03:20 241 19 gusting 21 6.7
2019-Dec-11 03:15 248 23 gusting 27 6.7
2019-Dec-11 03:10 258 26 gusting 27 6.7
2019-Dec-11 03:05 244 19 gusting 25 6.7
2019-Dec-11 03:00 246 15 gusting 21 6.7
2019-Dec-11 02:55 256 18 gusting 22 6.7
2019-Dec-11 02:50 260 21 gusting 27 6.7
2019-Dec-11 02:45 247 19 gusting 24 7.2
2019-Dec-11 02:40 248 25 gusting 26 7.2
2019-Dec-11 02:35 256 24 gusting 27 7.2
2019-Dec-11 02:30 244 19 gusting 27 6.7
2019-Dec-11 02:25 243 21 gusting 26 6.7
2019-Dec-11 02:20 241 18 gusting 21 6.7
2019-Dec-11 02:15 240 25 gusting 26 6.7
2019-Dec-11 02:10 255 22 gusting 26 6.7
2019-Dec-11 02:00 257 22 gusting 26 6.7
2019-Dec-11 01:55 236 20 gusting 26 6.7
2019-Dec-11 01:45 256 20 gusting 27 6.7
2019-Dec-11 01:35 236 16 gusting 15 6.1
2019-Dec-11 01:30 227 15 gusting 15 6.1
2019-Dec-11 01:20 211 11 gusting 14 6.1
2019-Dec-11 01:15 233 19 gusting 19 6.1
2019-Dec-11 01:10 224 13 gusting 19 6.1
2019-Dec-11 01:00 264 19 gusting 24 6.7
2019-Dec-11 00:55 239 18 gusting 20 6.7
2019-Dec-11 00:50 249 12 gusting 17 6.7
2019-Dec-11 00:45 256 19 gusting 25 6.7
2019-Dec-11 00:35 230 11 gusting 13 6.1
2019-Dec-11 00:30 227 13 gusting 13 6.1
2019-Dec-11 00:20 241 17 gusting 19 6.1
2019-Dec-11 00:15 257 13 gusting 19 6.1
2019-Dec-11 00:10 260 16 gusting 17 6.1
2019-Dec-11 00:05 236 19 gusting 20 6.1
2019-Dec-11 00:00 258 19 gusting 26 6.1
2019-Dec-10 23:50 270 20 gusting 24 6.1
2019-Dec-10 23:45 272 26 gusting 26 6.1
2019-Dec-10 23:40 253 24 gusting 25 6.7
2019-Dec-10 23:35 285 18 gusting 21 6.7
2019-Dec-10 23:30 279 17 gusting 24 6.7
2019-Dec-10 23:20 261 13 gusting 18 6.7
2019-Dec-10 23:15 277 19 gusting 20 6.7
2019-Dec-10 23:10 258 22 gusting 26 6.7
2019-Dec-10 23:05 264 20 gusting 25 7.2
2019-Dec-10 23:00 270 23 gusting 24 7.2
2019-Dec-10 22:50 281 20 gusting 20 7.2
2019-Dec-10 22:40 266 20 gusting 26 7.8
2019-Dec-10 22:35 284 20 gusting 21 7.8
2019-Dec-10 22:30 268 20 gusting 26 7.8
2019-Dec-10 22:25 226 37 gusting 40 8.3
2019-Dec-10 22:15 189 27 gusting 33 8.3
2019-Dec-10 22:10 192 20 gusting 28 8.3
2019-Dec-10 22:05 186 26 gusting 27 8.3
2019-Dec-10 22:00 209 34 gusting 35 7.8
2019-Dec-10 21:55 173 26 gusting 37 7.8
2019-Dec-10 21:45 180 30 gusting 28 7.8
2019-Dec-10 21:40 168 28 gusting 33 7.8
2019-Dec-10 21:35 158 37 gusting 33 7.8
2019-Dec-10 21:30 161 35 gusting 39 7.8
2019-Dec-10 21:25 147 34 gusting 35 7.8
2019-Dec-10 21:15 177 33 gusting 33 7.8
2019-Dec-10 21:10 171 38 gusting 41 7.8
2019-Dec-10 21:05 176 40 gusting 44 7.2
2019-Dec-10 21:00 176 40 gusting 44 7.2
2019-Dec-10 20:50 158 40 gusting 38 7.2
2019-Dec-10 20:45 180 41 gusting 42 7.2
2019-Dec-10 20:35 182 47 gusting 45 7.2
2019-Dec-10 20:30 170 45 gusting 45 7.2
2019-Dec-10 20:20 172 48 gusting 45 6.7
2019-Dec-10 20:15 162 43 gusting 42 6.7
2019-Dec-10 20:10 165 41 gusting 53 6.7
2019-Dec-10 20:05 155 45 gusting 47 6.7
2019-Dec-10 19:55 172 45 gusting 46 6.7
2019-Dec-10 19:50 188 42 gusting 42 6.7
2019-Dec-10 19:45 173 50 gusting 53 6.7
2019-Dec-10 19:40 172 51 gusting 50 6.7
2019-Dec-10 19:35 162 41 gusting 50 6.1
2019-Dec-10 19:30 183 42 gusting 45 6.1
2019-Dec-10 19:20 181 46 gusting 47 6.1
2019-Dec-10 19:15 161 46 gusting 50 6.1
2019-Dec-10 19:05 184 45 gusting 45 5.6
2019-Dec-10 19:00 170 46 gusting 53 5.6
2019-Dec-10 18:50 165 53 gusting 53 5.6
2019-Dec-10 18:40 182 50 gusting 51 5.6
2019-Dec-10 18:35 170 44 gusting 52 5.6
2019-Dec-10 18:25 186 49 gusting 50 5.0
2019-Dec-10 18:15 167 50 gusting 50 5.0
2019-Dec-10 18:10 168 52 gusting 53 5.0
2019-Dec-10 18:00 173 45 gusting 47 5.0
2019-Dec-10 17:50 179 53 gusting 53 5.0
2019-Dec-10 17:40 180 42 gusting 46 5.0
2019-Dec-10 17:35 188 57 gusting 59 5.0
2019-Dec-10 17:30 172 39 gusting 44 5.0
2019-Dec-10 17:20 175 42 gusting 41 5.0
2019-Dec-10 17:15 168 42 gusting 39 5.0
2019-Dec-10 17:05 191 40 gusting 41 5.0
2019-Dec-10 17:00 187 41 gusting 39 4.4
2019-Dec-10 16:55 176 39 gusting 46 4.4
2019-Dec-10 16:50 155 46 gusting 47 4.4
2019-Dec-10 16:45 162 44 gusting 48 4.4
2019-Dec-10 16:40 167 46 gusting 46 4.4
2019-Dec-10 16:30 177 45 gusting 45 4.4
2019-Dec-10 16:20 182 38 gusting 45 4.4
2019-Dec-10 16:15 169 48 gusting 50 4.4
2019-Dec-10 16:10 173 44 gusting 46 4.4
2019-Dec-10 16:05 164 50 gusting 47 4.4
2019-Dec-10 15:55 168 52 gusting 54 4.4
2019-Dec-10 15:50 193 45 gusting 42 4.4
2019-Dec-10 15:45 168 48 gusting 53 4.4
2019-Dec-10 15:35 184 46 gusting 46 4.4
2019-Dec-10 15:30 184 44 gusting 47 4.4
2019-Dec-10 15:25 152 37 gusting 39 4.4
2019-Dec-10 15:15 165 40 gusting 45 4.4
2019-Dec-10 15:10 168 54 gusting 58 4.4
2019-Dec-10 15:05 144 50 gusting 45 4.4
2019-Dec-10 15:00 192 54 gusting 46 4.4
2019-Dec-10 14:55 167 60 gusting 55 4.4
2019-Dec-10 14:45 168 46 gusting 50 4.4
2019-Dec-10 14:40 184 47 gusting 46 4.4
2019-Dec-10 14:35 176 49 gusting 46 4.4
2019-Dec-10 14:30 142 52 gusting 46 4.4
2019-Dec-10 14:20 170 53 gusting 51 4.4
2019-Dec-10 14:15 176 51 gusting 45 4.4
2019-Dec-10 14:10 167 49 gusting 47 4.4
2019-Dec-10 14:05 171 46 gusting 41 4.4
2019-Dec-10 14:00 168 54 gusting 45 4.4
2019-Dec-10 13:55 177 49 gusting 42 4.4
2019-Dec-10 13:50 167 46 gusting 51 4.4
2019-Dec-10 13:45 162 47 gusting 39 4.4
2019-Dec-10 13:40 180 42 gusting 45 4.4
2019-Dec-10 13:35 180 46 gusting 44 4.4
2019-Dec-10 13:30 141 41 gusting 45 4.4
2019-Dec-10 13:25 165 44 gusting 39 4.4
2019-Dec-10 13:20 196 33 gusting 37 5.0
2019-Dec-10 13:10 180 54 gusting 47 5.0
2019-Dec-10 13:00 143 47 gusting 50 5.0
2019-Dec-10 12:55 153 51 gusting 46 5.0
2019-Dec-10 12:45 169 48 gusting 52 5.0
2019-Dec-10 12:40 167 49 gusting 47 5.6
2019-Dec-10 12:35 173 48 gusting 44 5.6
2019-Dec-10 12:30 180 47 gusting 41 5.6
2019-Dec-10 12:20 153 43 gusting 40 5.6
2019-Dec-10 12:15 179 55 gusting 50 5.6
2019-Dec-10 12:10 178 50 gusting 53 5.6
2019-Dec-10 12:05 176 46 gusting 47 5.6
2019-Dec-10 12:00 171 48 gusting 39 5.0
2019-Dec-10 11:55 176 40 gusting 37 5.0
2019-Dec-10 11:45 162 44 gusting 39 5.0
2019-Dec-10 11:40 169 43 gusting 41 5.0
2019-Dec-10 11:35 177 37 gusting 39 5.0
2019-Dec-10 11:25 179 39 gusting 39 5.0
2019-Dec-10 11:20 161 45 gusting 46 5.0
2019-Dec-10 11:15 176 42 gusting 38 5.0
2019-Dec-10 11:10 161 37 gusting 33 5.0
2019-Dec-10 11:05 173 41 gusting 35 5.0
2019-Dec-10 11:00 165 37 gusting 33 5.0
2019-Dec-10 10:50 175 37 gusting 33 4.4
2019-Dec-10 10:45 176 39 gusting 33 4.4
2019-Dec-10 10:40 160 37 gusting 35 4.4
2019-Dec-10 10:35 190 33 gusting 38 4.4
2019-Dec-10 10:30 164 41 gusting 41 4.4
2019-Dec-10 10:25 169 35 gusting 35 4.4
2019-Dec-10 10:20 177 34 gusting 28 4.4
2019-Dec-10 10:15 175 42 gusting 39 4.4
2019-Dec-10 10:10 178 39 gusting 35 4.4
2019-Dec-10 10:00 163 38 gusting 37 4.4
2019-Dec-10 09:55 192 32 gusting 30 4.4
2019-Dec-10 09:45 178 40 gusting 33 3.9
2019-Dec-10 09:40 172 37 gusting 32 3.9
2019-Dec-10 09:35 173 35 gusting 33 3.9
2019-Dec-10 09:25 160 28 gusting 33 3.9
2019-Dec-10 09:20 155 33 gusting 27 3.9
2019-Dec-10 09:15 159 28 gusting 28 3.9
2019-Dec-10 09:10 166 26 gusting 28 3.9
2019-Dec-10 09:05 167 36 gusting 33 3.9
2019-Dec-10 09:00 176 26 gusting 25 3.9
2019-Dec-10 08:55 160 27 gusting 26 3.3
2019-Dec-10 08:50 163 28 gusting 31 3.3
2019-Dec-10 08:45 168 31 gusting 26 3.3
2019-Dec-10 08:40 158 26 gusting 26 3.3
2019-Dec-10 08:35 169 27 gusting 31 3.3
2019-Dec-10 08:25 158 27 gusting 24 3.3
2019-Dec-10 08:15 171 28 gusting 27 3.3
2019-Dec-10 08:10 171 26 gusting 27 3.3
2019-Dec-10 08:05 173 27 gusting 27 3.3
2019-Dec-10 08:00 158 25 gusting 26 3.3
2019-Dec-10 07:50 176 28 gusting 27 3.3
2019-Dec-10 07:45 157 26 gusting 25 3.3
2019-Dec-10 07:40 163 22 gusting 25 3.3
2019-Dec-10 07:35 158 25 gusting 20 3.3
2019-Dec-10 07:30 161 28 gusting 24 3.3
2019-Dec-10 07:20 156 25 gusting 19 2.8
2019-Dec-10 07:15 146 23 gusting 19 2.8
2019-Dec-10 07:10 186 23 gusting 24 2.8
2019-Dec-10 07:05 178 18 gusting 19 2.8
2019-Dec-10 07:00 182 20 gusting 19 2.8
2019-Dec-10 06:50 162 21 gusting 21 2.8
2019-Dec-10 06:45 171 20 gusting 21 2.8
2019-Dec-10 06:35 167 19 gusting 19 2.8
2019-Dec-10 06:30 170 19 gusting 17 2.8
2019-Dec-10 06:20 162 18 gusting 15 2.8
2019-Dec-10 06:15 178 19 gusting 18 2.2
2019-Dec-10 06:05 164 18 gusting 17 2.2
2019-Dec-10 06:00 185 20 gusting 19 2.2
2019-Dec-10 05:55 186 19 gusting 15 2.2
2019-Dec-10 05:45 184 18 gusting 19 2.2
2019-Dec-10 05:35 166 16 gusting 15 2.2
2019-Dec-10 05:30 180 16 gusting 14 2.2
2019-Dec-10 05:25 180 15 gusting 15 2.2
2019-Dec-10 05:20 167 17 gusting 15 2.2
2019-Dec-10 05:15 171 15 gusting 18 2.2
2019-Dec-10 05:05 177 13 gusting 12 2.2
2019-Dec-10 05:00 185 11 gusting 12 2.2
2019-Dec-10 04:55 166 15 gusting 14 2.2
2019-Dec-10 04:50 185 13 gusting 12 2.2
2019-Dec-10 04:45 175 15 gusting 13 2.2
2019-Dec-10 04:35 173 14 gusting 13 2.2
2019-Dec-10 04:30 180 13 gusting 13 1.7
2019-Dec-10 04:25 170 14 gusting 14 1.7
2019-Dec-10 04:15 186 12 gusting 13 1.7
2019-Dec-10 04:10 195 13 gusting 13 1.7
2019-Dec-10 04:05 193 12 gusting 11 1.7
2019-Dec-10 04:00 180 10 gusting 11 1.7
2019-Dec-10 03:55 192 10 gusting 10 1.7
2019-Dec-10 03:45 185 11 gusting 11 1.7
2019-Dec-10 03:40 180 10 gusting 11 1.7
2019-Dec-10 03:35 189 10 gusting 11 1.7
2019-Dec-10 03:25 180 8 gusting 8 1.7
2019-Dec-10 03:20 177 7 gusting 7 1.7
2019-Dec-10 03:15 180 7 gusting 6 1.7
2019-Dec-10 03:05 175 7 gusting 7 1.7
2019-Dec-10 03:00 180 7 gusting 6 1.1
2019-Dec-10 02:55 180 6 gusting 6 1.1
2019-Dec-10 02:50 158 3 gusting 4 1.1
2019-Dec-10 02:40 148 2 gusting 2 1.1
2019-Dec-10 02:35 135 2 gusting 1 1.1
2019-Dec-10 02:30 135 2 gusting 2 1.1
2019-Dec-10 02:25 135 2 gusting 1 1.1
2019-Dec-10 02:20 135 2 gusting 1 1.1
2019-Dec-10 02:15 135 1 gusting 1 1.1
2019-Dec-10 02:05 135 0 gusting 0 1.1
2019-Dec-10 01:55 135 4 gusting 2 0.6
2019-Dec-10 01:50 112 2 gusting 1 1.1
2019-Dec-10 01:45 112 1 gusting 1 0.6
2019-Dec-10 01:40 112 1 gusting 1 0.6
2019-Dec-10 01:35 112 1 gusting 1 0.6
2019-Dec-10 01:30 045 2 gusting 1 0.6
2019-Dec-10 01:25 005 1.1
2019-Dec-10 01:15 1.1
2019-Dec-10 01:10 1.1
2019-Dec-10 01:05 1.1
2019-Dec-10 01:00 1.1
2019-Dec-10 00:55 1.1
2019-Dec-10 00:50 1.1
2019-Dec-10 00:45 1.1
2019-Dec-10 00:40 1.1
2019-Dec-10 00:35 1.7
2019-Dec-10 00:30 1.7
2019-Dec-10 00:20 1.7
2019-Dec-10 00:15 1.7
2019-Dec-10 00:10 022 1 gusting 1 1.7
2019-Dec-10 00:05 022 1 gusting 2 1.7
2019-Dec-10 00:00 022 4 gusting 2 1.7
2019-Dec-09 23:55 022 2 gusting 2 1.7
2019-Dec-09 23:45 090 0 gusting 1 1.7
2019-Dec-09 23:40 090 1 gusting 2 2.2
2019-Dec-09 23:35 090 3 gusting 2 2.2
2019-Dec-09 23:30 022 0 gusting 4 2.2
2019-Dec-09 23:25 045 4 gusting 5 2.2
2019-Dec-09 23:20 022 3 gusting 6 2.8
2019-Dec-09 23:15 005 6 gusting 6 2.8
2019-Dec-09 23:10 005 6 gusting 6 2.8
2019-Dec-09 23:05 335 4 gusting 5 2.8
2019-Dec-09 23:00 337 3 gusting 7 2.8
2019-Dec-09 22:55 348 8 gusting 8 2.8
2019-Dec-09 22:45 008 6 gusting 10 2.8
2019-Dec-09 22:35 356 10 gusting 12 2.8
2019-Dec-09 22:30 005 5 gusting 12 2.8
2019-Dec-09 22:25 012 11 gusting 13 2.8
2019-Dec-09 22:20 342 7 gusting 11 2.8
2019-Dec-09 22:15 2.8
2019-Dec-09 22:05 005 10 gusting 10 2.8
2019-Dec-09 22:00 014 11 gusting 15 2.8
2019-Dec-09 21:55 354 15 gusting 19 2.8
2019-Dec-09 21:45 009 19 gusting 24 3.3
2019-Dec-09 21:40 2.8
2019-Dec-09 21:35 001 8 gusting 12 2.8
2019-Dec-09 21:30 006 6 gusting 7 2.8
2019-Dec-09 21:25 332 9 gusting 10 2.8
2019-Dec-09 21:15 002 9 gusting 10 2.8
2019-Dec-09 21:10 008 9 gusting 14 2.8
2019-Dec-09 21:05 002 13 gusting 13 2.8
2019-Dec-09 21:00 356 10 gusting 10 2.8
2019-Dec-09 20:55 012 8 gusting 12 2.8
2019-Dec-09 20:45 027 11 gusting 14 2.8
2019-Dec-09 20:35 359 11 gusting 17 2.8
2019-Dec-09 20:30 2.8
2019-Dec-09 20:25 355 16 gusting 18 2.8
2019-Dec-09 20:20 016 13 gusting 17 3.3
2019-Dec-09 20:15 339 15 gusting 14 3.3
2019-Dec-09 20:05 355 21 gusting 20 3.3
2019-Dec-09 20:00 348 25 gusting 26 2.8
2019-Dec-09 19:55 018 14 gusting 19 2.8
2019-Dec-09 19:45 005 18 gusting 20 2.8
2019-Dec-09 19:40 008 22 gusting 25 2.8
2019-Dec-09 19:35 358 14 gusting 20 2.8
2019-Dec-09 19:30 355 21 gusting 19 2.8
2019-Dec-09 19:25 347 18 gusting 19 2.8
2019-Dec-09 19:20 2.8
2019-Dec-09 19:15 003 22 gusting 21 2.8
2019-Dec-09 19:10 358 21 gusting 21 2.8
2019-Dec-09 19:05 349 22 gusting 24 2.8
2019-Dec-09 19:00 346 19 gusting 20 2.8
2019-Dec-09 18:55 002 19 gusting 19 2.8
2019-Dec-09 18:50 008 23 gusting 21 2.8
2019-Dec-09 18:45 009 22 gusting 24 2.8
2019-Dec-09 18:40 355 19 gusting 24 2.8
2019-Dec-09 18:35 007 19 gusting 19 2.2
2019-Dec-09 18:30 2.8
2019-Dec-09 18:25 003 11 gusting 19 2.8
2019-Dec-09 18:20 2.8
2019-Dec-09 18:15 355 19 gusting 22 2.8
2019-Dec-09 18:10 007 26 gusting 26 2.8
2019-Dec-09 18:05 322 20 gusting 19 2.8
2019-Dec-09 17:55 337 22 gusting 26 2.8
2019-Dec-09 17:50 338 30 gusting 33 2.8
2019-Dec-09 17:38 337 21 gusting 21 2.2
2019-Dec-09 17:30 345 26 gusting 22 2.2
2019-Dec-09 17:25 357 18 gusting 19 2.2
2019-Dec-09 17:20 333 20 gusting 22 2.2
2019-Dec-09 17:15 352 19 gusting 22 2.2
2019-Dec-09 17:10 346 23 gusting 20 2.2
2019-Dec-09 17:05 359 21 gusting 28 2.2
2019-Dec-09 17:00 333 30 gusting 28 2.8
2019-Dec-09 16:55 001 28 gusting 26 3.3
2019-Dec-09 16:50 348 30 gusting 27 3.9
2019-Dec-09 16:45 017 26 gusting 24 3.9
2019-Dec-09 16:40 356 21 gusting 24 3.9
2019-Dec-09 16:30 351 17 gusting 18 3.9
2019-Dec-09 16:25 344 19 gusting 14 3.9
2019-Dec-09 16:20 015 20 gusting 19 3.9
2019-Dec-09 16:15 027 17 gusting 19 3.9
2019-Dec-09 16:10 005 21 gusting 22 3.9
2019-Dec-09 16:05 014 15 gusting 22 3.9